Location: Campbell Hill
(37.9301°N, 89.5490°W)
Time: 11:14:11
(UTC+00:00)

AQUARIUS - Pass Details

Date: 07 November 2025
Orbit: 634 x 636 km, 98.0° (Epoch: 07 December)

Event Time Altitude Azimuth Distance (km) Brightness Sun altitude
Rises 23:20:18 0° 150° (SSE) 2,921 7.4 -6.0°
Reaches altitude 10° 23:22:34 10° 143° (SE) 2,017 6.5 -6.4°
Maximum altitude 23:26:43 43° 73° (ENE) 901 4.5 -7.2°
Drops below altitude 10° 23:30:54 10° 2° (N) 2,029 6.5 -8.0°
Sets 23:33:11 0° 356° (N) 2,941 7.4 -8.4°
